Location: Passau
(48.5830°N, 13.4830°E)
Time: 05:29:54
(UTC+02:00)

Vanguard 1 - Pass Details

Date: 31 July 2021
Orbit: 652 x 3831 km, 34.3° (Epoch: 16 September)

Event Time Altitude Azimuth Distance (km) Brightness Sun altitude
Rises 12:32:23 0° 227° (SW) 3,165 12.9 58.5°
Reaches altitude 10° 12:34:57 10° 210° (SSW) 2,436 12.6 58.6°
Maximum altitude 12:39:15 22° 160° (SSE) 2,107 12.8 58.8°
Drops below altitude 10° 12:45:16 10° 114° (ESE) 3,560 13.3 59.1°
Sets 12:50:03 0° 102° (ESE) 5,129 13.9 59.2°
